Regional Weather Roundup
Issued by NWS Green Bay, WI

Home | Current Version | Previous Version | Graphics & Text | Print | Product List | Glossary Off
Versions: 1 2 3 4 5 6 7 8 9 10 11 12 13 14 15 16 17 18 19 20 21 22 23 24 25 26 27 28 29 30 31 32 33 34 35 36 37 38 39 40 41 42 43 44 45 46 47 48 49 50

000
ASUS43 KGRB 221000
RWRGRB

NORTH-CENTRAL AND NORTHEAST WISCONSIN REGIONAL WEATHER ROUNDUP
NATIONAL WEATHER SERVICE GREEN BAY WI
500 AM CDT MON MAY 22 2017

WIZ005-009-010>012-018-019-221100-
NORTH CENTRAL WISCONSIN

CITY           SKY/WX    TMP DP  RH WIND       PRES   REMARKS
IRONWOOD       LGT RAIN  45  44  97 W10       29.76S
MANITOWISH WTR NOT AVBL
ARBOR VITAE    NOT AVBL
EAGLE RIVER    NOT AVBL
LAND O LAKES   NOT AVBL
RHINELANDER    LGT RAIN  45  43  93 W12       29.79S
PHILLIPS       NOT AVBL
ANTIGO         NOT AVBL
TOMAHAWK       NOT AVBL
MERRILL        NOT AVBL
$$

WIZ013-073-221100-
NORTHEAST WISCONSIN

CITY           SKY/WX    TMP DP  RH WIND       PRES   REMARKS
IRON MOUNTAIN  CLOUDY    48  44  86 W8        29.74S
MARINETTE      RAIN      47  45  93 W7        29.80S
$$

WIZ017-030-035>037-045-221100-
CENTRAL WISCONSIN

CITY           SKY/WX    TMP DP  RH WIND       PRES   REMARKS
MEDFORD        NOT AVBL
WAUSAU         LGT RAIN  43  41  93 W9G21     29.83S
MOSINEE        NOT AVBL
MARSHFIELD     CLOUDY    44  41  89 W10       29.85S
WISC RAPIDS    CLOUDY    46  41  82 W12G20    29.89S
STEVENS POINT  NOT AVBL
WAUPACA        NOT AVBL
SHAWANO        NOT AVBL
CLINTONVILLE   NOT AVBL
WAUTOMA        CLOUDY    47  40  76 W12       29.90
$$

WIZ038-039-048-051-221100-
FOX VALLEY

CITY           SKY/WX    TMP DP  RH WIND       PRES   REMARKS
NWS GREEN BAY  CLOUDY    48  44  86 W12       29.85S
APPLETON       NOT AVBL
OSHKOSH        CLOUDY    48  40  73 W9G22     29.88S
FOND DU LAC    CLOUDY    49  38  65 W9        29.90R
$$

WIZ022-050-052-221100-
EAST CENTRAL WISCONSIN

CITY           SKY/WX    TMP DP  RH WIND       PRES   REMARKS
EPHRAIM        NOT AVBL
WASHINGTON ISL NOT AVBL
STURGEON BAY   CLOUDY    47  44  90 W12       29.82S
MANITOWOC      NOT AVBL
SHEBOYGAN      CLOUDY    48  42  80 W16G24    29.88S
$$

LMZ563-521-522-541>543-221100-
LAKESHORE

STATION/POSITION TIME  TEMP    WIND        PRES    VSBY  WAVE
                       AIR SEA DIR/SP/G                  HT/PER
                 (UTC) (F)     (DEG/KT/KT) (MB)    (MI)  (FT/S)
SHEBOYGAN LKSHOR 0900   49     250/ 14/ 17 1011.7R
KEWAUNEE LKSHORE 0930   49     250/ 11/ 19 1010.1R
NORTHPORT PIER   0940   47     230/  5/ 13 1008.8S
N MID LAKE BUOY  0850   42 38  200/ 14/ 16 1009.8F         2/ 4
CHAMBERS ISLAND  0940   48     210/  7/ 13 1008.5S
MENOMINEE LKSHOR 0930          230/ 10/ 18 1008.3R
$$




USA.gov is the U.S. government's official web portal to all federal, state and local government web resources and services.